| time (UTC) | temp F | wind direction | speed MPH | gust MPH | rain 1hr in | rain 24hr in | rain mn in | humidity % | barometer mb |
| 20260510060929 | 55 | 145 | 0.0 | 0.0 | 0.00 | 0.00 | 0.00 | 66 | 1019.7 |
| 20260510055749 | 55 | 145 | 0.0 | 0.0 | 0.00 | 0.00 | 0.00 | 66 | 1019.6 |
| 20260510053309 | 56 | 146 | 0.0 | 0.0 | 0.00 | 0.00 | 0.00 | 67 | 1019.6 |
| 20260510052112 | 57 | 150 | 0.0 | 0.0 | 0.00 | 0.00 | 0.00 | 65 | 1019.7 |
| 20260510045543 | 58 | 116 | 0.0 | 0.0 | 0.00 | 0.00 | 0.00 | 59 | 1019.8 |
| 20260510044407 | 59 | 116 | 0.0 | 0.0 | 0.00 | 0.00 | 0.00 | 56 | 1019.8 |
| 20260510043149 | 60 | 132 | 0.0 | 0.0 | 0.00 | 0.00 | 0.00 | 53 | 1019.9 |
| 20260510041951 | 61 | 142 | 0.0 | 0.0 | 0.00 | 0.00 | 0.00 | 50 | 1019.9 |
| 20260510040738 | 62 | 142 | 0.0 | 0.0 | 0.00 | 0.00 | 0.00 | 48 | 1019.8 |
| 20260510035525 | 63 | 142 | 0.0 | 0.0 | 0.00 | 0.00 | 0.00 | 46 | 1019.8 |
| 20260510034326 | 63 | 142 | 0.0 | 0.0 | 0.00 | 0.00 | 0.00 | 45 | 1019.6 |
| 20260510033131 | 64 | 142 | 0.0 | 0.0 | 0.00 | 0.00 | 0.00 | 44 | 1019.5 |
| 20260510031921 | 64 | 142 | 0.0 | 0.0 | 0.00 | 0.00 | 0.00 | 43 | 1019.4 |
| 20260510030643 | 65 | 142 | 0.0 | 0.0 | 0.00 | 0.00 | 0.00 | 42 | 1019.3 |
| 20260510024017 | 66 | 144 | 0.0 | 0.0 | 0.00 | 0.00 | 0.00 | 40 | 1019.5 |
| 20260510022804 | 67 | 144 | 0.0 | 0.0 | 0.00 | 0.00 | 0.00 | 40 | 1019.5 |
| 20260510021611 | 67 | 152 | 0.0 | 5.0 | 0.00 | 0.00 | 0.00 | 38 | 1019.5 |
| 20260510013833 | 69 | 183 | 0.0 | 0.0 | 0.00 | 0.00 | 0.00 | 37 | 1019.7 |
| 20260510012650 | 68 | 242 | 0.0 | 0.0 | 0.00 | 0.00 | 0.00 | 37 | 1019.7 |
| 20260510011438 | 69 | 235 | 0.0 | 0.0 | 0.00 | 0.00 | 0.00 | 36 | 1019.8 |
| 20260510010236 | 69 | 178 | 0.0 | 0.0 | 0.00 | 0.00 | 0.00 | 36 | 1019.9 |
| 20260510005014 | 69 | 183 | 0.0 | 0.0 | 0.00 | 0.00 | 0.00 | 36 | 1020.0 |
| 20260510003734 | 69 | 152 | 0.0 | 0.0 | 0.00 | 0.00 | 0.00 | 35 | 1020.0 |
| 20260510002552 | 69 | 173 | 0.0 | 0.0 | 0.00 | 0.00 | 0.00 | 35 | 1020.2 |
| 20260510001331 | 69 | 225 | 0.0 | 3.0 | 0.00 | 0.00 | 0.00 | 36 | 1020.0 |
| 20260510000159 | 69 | 211 | 0.0 | 0.0 | 0.00 | 0.00 | 0.00 | 37 | 1020.0 |
| 20260509235017 | 69 | 157 | 0.0 | 0.0 | 0.00 | 0.00 | 0.00 | 36 | 1020.2 |
| 20260509233824 | 69 | 168 | 0.0 | 0.0 | 0.00 | 0.00 | 0.00 | 36 | 1020.2 |
| 20260509232622 | 69 | 191 | 0.0 | 5.0 | 0.00 | 0.00 | 0.00 | 38 | 1020.1 |
| 20260509230044 | 68 | 241 | 0.0 | 0.0 | 0.00 | 0.00 | 0.00 | 38 | 1020.3 |
| 20260509224839 | 68 | 182 | 0.0 | 0.0 | 0.00 | 0.00 | 0.00 | 38 | 1020.4 |
| 20260509223655 | 69 | 101 | 0.0 | 1.0 | 0.00 | 0.00 | 0.00 | 38 | 1020.5 |
| 20260509222506 | 68 | 162 | 0.0 | 0.0 | 0.00 | 0.00 | 0.00 | 39 | 1020.6 |
| 20260509221336 | 68 | 244 | 0.0 | 0.0 | 0.00 | 0.00 | 0.00 | 40 | 1020.7 |
| 20260509220126 | 67 | 117 | 0.0 | 0.0 | 0.00 | 0.00 | 0.00 | 40 | 1020.7 |
| 20260509214951 | 66 | 132 | 0.0 | 0.0 | 0.00 | 0.00 | 0.00 | 41 | 1020.9 |
| 20260509212355 | 66 | 134 | 0.0 | 0.0 | 0.00 | 0.00 | 0.00 | 42 | 1021.3 |
| 20260509205912 | 65 | 142 | 0.0 | 8.0 | 0.00 | 0.00 | 0.00 | 43 | 1021.6 |
| 20260509204641 | 64 | 155 | 0.0 | 0.0 | 0.00 | 0.00 | 0.00 | 44 | 1021.7 |
| 20260509203506 | 64 | 154 | 0.0 | 1.0 | 0.00 | 0.00 | 0.00 | 46 | 1021.7 |
| 20260509202331 | 65 | 164 | 0.0 | 0.0 | 0.00 | 0.00 | 0.00 | 45 | 1021.9 |
| 20260509201159 | 64 | 150 | 0.0 | 6.0 | 0.00 | 0.00 | 0.00 | 45 | 1022.0 |
| 20260509200010 | 63 | 172 | 0.0 | 0.0 | 0.00 | 0.00 | 0.00 | 46 | 1022.1 |
| 20260509194740 | 63 | 117 | 0.0 | 1.0 | 0.00 | 0.00 | 0.00 | 48 | 1022.1 |
| 20260509193554 | 63 | 59 | 0.0 | 7.0 | 0.00 | 0.00 | 0.00 | 47 | 1022.4 |
| 20260509191051 | 62 | 181 | 1.0 | 3.0 | 0.00 | 0.00 | 0.00 | 49 | 1022.7 |
| 20260509185914 | 61 | 136 | 0.0 | 8.0 | 0.00 | 0.00 | 0.00 | 51 | 1022.7 |
| 20260509184704 | 60 | 119 | 3.0 | 13.0 | 0.00 | 0.00 | 0.00 | 51 | 1022.7 |
| 20260509182059 | 60 | 130 | 1.0 | 15.0 | 0.00 | 0.00 | 0.00 | 54 | 1022.6 |
| 20260509180917 | 59 | 146 | 2.0 | 15.0 | 0.00 | 0.00 | 0.00 | 53 | 1022.6 |
| 20260509175714 | 59 | 175 | 0.0 | 9.0 | 0.00 | 0.00 | 0.00 | 55 | 1022.8 |
| 20260509174534 | 58 | 169 | 0.0 | 9.0 | 0.00 | 0.00 | 0.00 | 56 | 1022.7 |
| 20260509173320 | 57 | 204 | 2.0 | 13.0 | 0.00 | 0.00 | 0.00 | 56 | 1022.6 |
| 20260509172050 | 57 | 183 | 2.0 | 10.0 | 0.00 | 0.00 | 0.00 | 56 | 1022.5 |
| 20260509170913 | 56 | 186 | 0.0 | 16.0 | 0.00 | 0.00 | 0.00 | 57 | 1022.5 |
| 20260509165732 | 56 | 109 | 2.0 | 16.0 | 0.00 | 0.00 | 0.00 | 57 | 1022.7 |
| 20260509164539 | 55 | 133 | 1.0 | 9.0 | 0.00 | 0.00 | 0.00 | 58 | 1022.6 |
| 20260509163314 | 55 | 198 | 1.0 | 11.0 | 0.00 | 0.00 | 0.00 | 59 | 1022.7 |
| 20260509162115 | 54 | 159 | 0.0 | 10.0 | 0.00 | 0.00 | 0.00 | 61 | 1022.7 |
| 20260509160929 | 54 | 144 | 1.0 | 16.0 | 0.00 | 0.00 | 0.00 | 61 | 1022.6 |
| 20260509155719 | 53 | 125 | 1.0 | 16.0 | 0.00 | 0.00 | 0.00 | 60 | 1022.5 |
| 20260509154529 | 53 | 136 | 2.0 | 16.0 | 0.00 | 0.00 | 0.00 | 61 | 1022.4 |
| 20260509153250 | 52 | 147 | 4.0 | 15.0 | 0.00 | 0.00 | 0.00 | 61 | 1022.3 |
| 20260509152034 | 52 | 120 | 3.0 | 15.0 | 0.00 | 0.00 | 0.00 | 61 | 1022.1 |
| 20260509150904 | 51 | 161 | 3.0 | 13.0 | 0.00 | 0.00 | 0.00 | 61 | 1022.1 |
| 20260509145733 | 51 | 130 | 3.0 | 13.0 | 0.00 | 0.00 | 0.00 | 62 | 1022.0 |
| 20260509144527 | 51 | 138 | 2.0 | 12.0 | 0.00 | 0.00 | 0.00 | 63 | 1021.8 |
| 20260509143342 | 50 | 167 | 1.0 | 0.0 | 0.00 | 0.00 | 0.00 | 63 | 1021.7 |
| 20260509142125 | 50 | 158 | 0.0 | 0.0 | 0.00 | 0.00 | 0.00 | 63 | 1021.7 |
| 20260509140951 | 49 | 142 | 0.0 | 9.0 | 0.00 | 0.00 | 0.00 | 63 | 1021.6 |
| 20260509135719 | 49 | 147 | 0.0 | 6.0 | 0.00 | 0.00 | 0.00 | 61 | 1021.5 |
| 20260509134447 | 49 | 157 | 0.0 | 8.0 | 0.00 | 0.00 | 0.00 | 61 | 1021.3 |
| 20260509133242 | 48 | 164 | 0.0 | 0.0 | 0.00 | 0.00 | 0.00 | 62 | 1021.3 |
| 20260509132110 | 48 | 180 | 0.0 | 0.0 | 0.00 | 0.00 | 0.00 | 63 | 1021.1 |
| 20260509130831 | 48 | 175 | 0.0 | 0.0 | 0.00 | 0.00 | 0.00 | 62 | 1021.0 |
| 20260509125621 | 48 | 138 | 0.0 | 0.0 | 0.00 | 0.00 | 0.00 | 62 | 1020.7 |
| 20260509124359 | 48 | 171 | 0.0 | 0.0 | 0.00 | 0.00 | 0.00 | 60 | 1020.5 |
| 20260509123219 | 48 | 163 | 0.0 | 0.0 | 0.00 | 0.00 | 0.00 | 59 | 1020.5 |
| 20260509122009 | 48 | 161 | 0.0 | 9.0 | 0.00 | 0.00 | 0.00 | 57 | 1020.4 |
| 20260509120739 | 48 | 153 | 0.0 | 11.0 | 0.00 | 0.00 | 0.00 | 57 | 1020.3 |
| 20260509115544 | 48 | 146 | 0.0 | 0.0 | 0.00 | 0.00 | 0.00 | 56 | 1020.2 |
| 20260509111612 | 49 | 158 | 0.0 | 0.0 | 0.00 | 0.00 | 0.00 | 54 | 1019.7 |
| 20260509110343 | 49 | 146 | 0.0 | 1.0 | 0.00 | 0.00 | 0.00 | 53 | 1019.6 |
| 20260509105132 | 50 | 148 | 0.0 | 12.0 | 0.00 | 0.00 | 0.00 | 52 | 1019.3 |
| 20260509103934 | 50 | 165 | 0.0 | 9.0 | 0.00 | 0.00 | 0.00 | 52 | 1019.2 |
| 20260509102742 | 50 | 165 | 2.0 | 14.0 | 0.00 | 0.00 | 0.00 | 52 | 1019.0 |
| 20260509101526 | 50 | 157 | 1.0 | 11.0 | 0.00 | 0.00 | 0.00 | 53 | 1018.7 |
| 20260509100357 | 50 | 140 | 0.0 | 0.0 | 0.00 | 0.00 | 0.00 | 56 | 1018.5 |
| 20260509095219 | 51 | 142 | 0.0 | 0.0 | 0.00 | 0.00 | 0.00 | 57 | 1018.4 |
| 20260509092617 | 51 | 132 | 0.0 | 0.0 | 0.00 | 0.00 | 0.00 | 57 | 1018.0 |
| 20260509091422 | 51 | 144 | 0.0 | 0.0 | 0.00 | 0.00 | 0.00 | 53 | 1018.1 |
| 20260509090202 | 52 | 130 | 1.0 | 3.0 | 0.00 | 0.00 | 0.00 | 51 | 1017.9 |
| 20260509084947 | 52 | 143 | 0.0 | 5.0 | 0.00 | 0.00 | 0.00 | 53 | 1017.7 |
| 20260509083809 | 52 | 140 | 0.0 | 3.0 | 0.00 | 0.00 | 0.00 | 54 | 1017.6 |
| 20260509082628 | 52 | 127 | 0.0 | 5.0 | 0.00 | 0.00 | 0.00 | 59 | 1017.5 |
| 20260509081454 | 52 | 137 | 0.0 | 0.0 | 0.00 | 0.00 | 0.00 | 60 | 1017.3 |
| 20260509080233 | 53 | 159 | 0.0 | 6.0 | 0.00 | 0.00 | 0.00 | 60 | 1017.2 |
| 20260509075015 | 53 | 140 | 0.0 | 4.0 | 0.00 | 0.00 | 0.00 | 60 | 1017.0 |
| 20260509072421 | 53 | 130 | 0.0 | 1.0 | 0.00 | 0.00 | 0.00 | 61 | 1016.8 |
| 20260509071201 | 53 | 143 | 0.0 | 0.0 | 0.00 | 0.00 | 0.00 | 61 | 1016.6 |
| 20260509065947 | 53 | 121 | 0.0 | 0.0 | 0.00 | 0.00 | 0.00 | 62 | 1016.5 |
| 20260509064720 | 53 | 118 | 0.0 | 0.0 | 0.00 | 0.00 | 0.00 | 63 | 1016.4 |
| 20260509063509 | 54 | 121 | 0.0 | 0.0 | 0.00 | 0.00 | 0.00 | 63 | 1016.2 |